Weather in Zadubye

Russia / Kostroma Oblast     57°41′06″N   40°57′34″E
temp.,
°C
wind,
m/s
gust,
m/s
humid.,
%
clouds,
%
prec.,
mm/h
press.,
hPa
HPBL,
m
9 may, sun
sun900:00+9ese51394100 3.8 1004522
03:00+10sse61293100 5.3 1002606
06:00+10sse41096100 1.2 1002527
09:00+9wnw4695100 1.9 1004364
12:00+9nw5793100 0.1 1007583
15:00+5nnw61194100 0.6 1011577
18:00+6nnw51288100 0.5 1013916
21:00+6nnw41182100 0.6 1016571
10 may, mon
mon1000:00+5nnw41178100 0.0 1019323
03:00+1nnw39875 0.0 1022193
06:00+3nnw411830 0.0 1025353
09:00+9n58530 0.0 10271204
12:00+12n56420 0.0 10271552
15:00+13n44400 0.0 10281649
18:00+13nne24540 0.0 1028241
21:00+7ne22615 0.0 103010
11 may, tue
tue1100:00+6ne22654 0.0 103111
03:00+4ene22715 0.0 103110
06:00+6ene23725 0.0 103294
09:00+12ene23545 0.0 1032584
12:00+16e34435 0.0 10321114
15:00+18e33400 0.0 10301192
18:00+17e24580 0.0 1030129
21:00+11ese33680 0.0 103020
12 may, wed
wed1200:00+8e33730 0.0 103131
03:00+7e34760 0.0 103045
06:00+9e36760 0.0 1030150
09:00+16e45600 0.0 1030438
12:00+20ese465713 0.0 1029942
15:00+22se465523 0.0 10281379
18:00+21e36664 0.0 1027240
21:00+15e468010 0.0 102675
13 may, thu
thu1300:00+14ese368452 0.0 102690
03:00+12e489042 0.0 1026119
06:00+14ese4108658 0.0 1025273
09:00+18ese4769100 0.0 1024494
12:00+18se4973100 0.0 1024461
15:00+22se4856100 0.0 10221583
18:00+20se496368 0.1 1021358
21:00+15ese41176100 0.1 1021240